AFR2257 EDDF-LFPG

Flight info

Callsign AFR2257
Flight time 0h 53m
Altitude 28000
Route SOBRA2L/18 SOBRA Y180 DIK UN857 TOLVU DCT RAPOR DCT VEDUS
Aircraft A21N/M-SDE3FGHIRWY/LB1

Departure

Time 2026-05-08 18:39
Airport Frankfurt Main Airport (EDDF)

Arrival

Time 2026-05-08 19:33
Airport Charles de Gaulle International Airport (LFPG)
Time Latitude Longitude Altitude Speed Heading
2026-05-08 17:59 50.04600 8.57069 372 ft 0 kts 60°
2026-05-08 18:23 50.04594 8.57054 371 ft 2 kts 63°
2026-05-08 18:23 50.04587 8.57033 371 ft 2 kts 59°
2026-05-08 18:24 50.04582 8.57021 371 ft 2 kts 50°
2026-05-08 18:24 50.04569 8.57010 371 ft 2 kts
2026-05-08 18:24 50.04554 8.57015 371 ft 2 kts 325°
2026-05-08 18:24 50.04545 8.57033 370 ft 2 kts 286°
2026-05-08 18:25 50.04544 8.57053 370 ft 0 kts 254°
2026-05-08 18:25 50.04547 8.57062 370 ft 1 kts 249°
2026-05-08 18:25 50.04547 8.57064 370 ft 0 kts 249°
2026-05-08 18:28 50.04543 8.57052 370 ft 2 kts 241°
2026-05-08 18:28 50.04500 8.57007 370 ft 11 kts 197°
2026-05-08 18:29 50.04471 8.56996 369 ft 2 kts 209°
2026-05-08 18:29 50.04450 8.56961 369 ft 5 kts 230°
2026-05-08 18:29 50.04413 8.56893 368 ft 10 kts 230°
2026-05-08 18:29 50.04352 8.56835 367 ft 9 kts 186°
2026-05-08 18:30 50.04315 8.56824 365 ft 1 kts 192°
2026-05-08 18:30 50.04311 8.56823 365 ft 0 kts 192°
2026-05-08 18:32 50.04274 8.56800 363 ft 20 kts 212°
2026-05-08 18:32 50.04192 8.56571 357 ft 25 kts 249°
2026-05-08 18:33 50.04130 8.56313 355 ft 25 kts 251°
2026-05-08 18:33 50.04074 8.56051 351 ft 25 kts 253°
2026-05-08 18:33 50.04013 8.55793 348 ft 25 kts 249°
2026-05-08 18:33 50.03954 8.55547 348 ft 23 kts 251°
2026-05-08 18:34 50.03895 8.55308 348 ft 24 kts 249°
2026-05-08 18:34 50.03834 8.55056 344 ft 25 kts 251°
2026-05-08 18:34 50.03773 8.54791 341 ft 26 kts 251°
2026-05-08 18:34 50.03715 8.54542 338 ft 21 kts 249°
2026-05-08 18:35 50.03662 8.54326 337 ft 21 kts 250°
2026-05-08 18:35 50.03616 8.54129 340 ft 18 kts 251°
2026-05-08 18:35 50.03574 8.53948 341 ft 17 kts 251°
2026-05-08 18:35 50.03536 8.53779 342 ft 16 kts 251°
2026-05-08 18:36 50.03502 8.53621 343 ft 14 kts 252°
2026-05-08 18:36 50.03466 8.53466 341 ft 16 kts 248°
2026-05-08 18:36 50.03419 8.53295 338 ft 17 kts 247°
2026-05-08 18:36 50.03370 8.53112 335 ft 18 kts 248°
2026-05-08 18:37 50.03330 8.52956 337 ft 6 kts 249°
2026-05-08 18:37 50.03311 8.52881 336 ft 11 kts 249°
2026-05-08 18:37 50.03275 8.52738 336 ft 11 kts 249°
2026-05-08 18:37 50.03247 8.52630 335 ft 5 kts 238°
2026-05-08 18:38 50.03232 8.52604 335 ft 4 kts 216°
2026-05-08 18:38 50.03209 8.52593 334 ft 0 kts 182°
2026-05-08 18:38 50.03203 8.52593 334 ft 1 kts 182°
2026-05-08 18:38 50.03056 8.52597 331 ft 57 kts 178°
2026-05-08 18:39 50.02389 8.52610 327 ft 130 kts 179°
2026-05-08 18:39 50.01306 8.52597 437 ft 172 kts 180°
2026-05-08 18:39 50.00108 8.52575 1031 ft 175 kts 179°
2026-05-08 18:39 49.98901 8.52631 1693 ft 178 kts 177°
2026-05-08 18:40 49.97666 8.52726 2312 ft 184 kts 177°
2026-05-08 18:40 49.96335 8.52833 2777 ft 200 kts 177°
2026-05-08 18:40 49.94903 8.52942 3216 ft 216 kts 178°
2026-05-08 18:40 49.93351 8.53055 3563 ft 236 kts 178°
2026-05-08 18:41 49.91640 8.53175 4030 ft 254 kts 178°
2026-05-08 18:41 49.89900 8.53299 4923 ft 253 kts 179°
2026-05-08 18:41 49.88116 8.53378 5657 ft 259 kts 185°
2026-05-08 18:41 49.86360 8.52947 6394 ft 263 kts 199°
2026-05-08 18:42 49.84585 8.52022 6997 ft 274 kts 204°
2026-05-08 18:42 49.82788 8.50963 7636 ft 283 kts 204°
2026-05-08 18:42 49.80951 8.49883 8442 ft 286 kts 204°
2026-05-08 18:42 49.79180 8.48556 9279 ft 282 kts 223°
2026-05-08 18:43 49.78067 8.46185 10088 ft 274 kts 255°
2026-05-08 18:43 49.77860 8.43310 10789 ft 277 kts 277°
2026-05-08 18:43 49.78199 8.40274 11199 ft 294 kts 281°
2026-05-08 18:43 49.78602 8.37083 11537 ft 312 kts 280°
2026-05-08 18:44 49.79002 8.33694 11856 ft 329 kts 278°
2026-05-08 18:44 49.79393 8.30148 12392 ft 338 kts 278°
2026-05-08 18:44 49.79772 8.26558 12890 ft 339 kts 278°
2026-05-08 18:44 49.80140 8.22975 13081 ft 339 kts 277°
2026-05-08 18:45 49.80504 8.19368 13083 ft 338 kts 277°
2026-05-08 18:45 49.80861 8.15786 13085 ft 338 kts 277°
2026-05-08 18:45 49.81217 8.12196 13085 ft 338 kts 277°
2026-05-08 18:45 49.81570 8.08632 13085 ft 338 kts 277°
2026-05-08 18:46 49.81930 8.05022 13242 ft 344 kts 278°
2026-05-08 18:46 49.82395 8.01347 13982 ft 346 kts 281°
2026-05-08 18:46 49.82944 7.97770 14835 ft 344 kts 282°
2026-05-08 18:46 49.83506 7.94163 15566 ft 346 kts 282°
2026-05-08 18:47 49.84071 7.90549 16255 ft 348 kts 282°
2026-05-08 18:47 49.84640 7.86901 16942 ft 350 kts 282°
2026-05-08 18:47 49.85209 7.83253 17613 ft 351 kts 282°
2026-05-08 18:47 49.85784 7.79563 18270 ft 353 kts 282°
2026-05-08 18:48 49.86354 7.75912 18899 ft 354 kts 282°
2026-05-08 18:48 49.86943 7.72195 19520 ft 356 kts 282°
2026-05-08 18:48 49.87530 7.68454 20125 ft 358 kts 282°
2026-05-08 18:48 49.88112 7.64715 20711 ft 359 kts 282°
2026-05-08 18:49 49.88693 7.60961 21280 ft 361 kts 282°
2026-05-08 18:49 49.89277 7.57178 21834 ft 362 kts 282°
2026-05-08 18:49 49.89862 7.53378 22370 ft 364 kts 282°
2026-05-08 18:49 49.90442 7.49604 22885 ft 365 kts 282°
2026-05-08 18:50 49.91030 7.45764 23391 ft 367 kts 282°
2026-05-08 18:50 49.91621 7.41896 23883 ft 368 kts 282°
2026-05-08 18:50 49.92204 7.38068 24344 ft 370 kts 282°
2026-05-08 18:50 49.92799 7.34151 24746 ft 373 kts 281°
2026-05-08 18:51 49.93397 7.30205 24901 ft 382 kts 281°
2026-05-08 18:51 49.94006 7.26178 25057 ft 390 kts 281°
2026-05-08 18:51 49.94629 7.22050 25288 ft 395 kts 281°
2026-05-08 18:51 49.95255 7.17887 25658 ft 397 kts 281°
2026-05-08 18:52 49.95881 7.13723 26140 ft 395 kts 281°
2026-05-08 18:52 49.96495 7.09621 26656 ft 393 kts 281°
2026-05-08 18:52 49.97110 7.05495 27064 ft 393 kts 281°
2026-05-08 18:52 49.97728 7.01344 27395 ft 395 kts 281°
2026-05-08 18:53 49.98335 6.97192 27718 ft 396 kts 280°
2026-05-08 18:53 49.98797 6.92963 28016 ft 396 kts 276°
2026-05-08 18:53 49.99118 6.84858 28068 ft 396 kts 269°
2026-05-08 18:54 49.98918 6.76320 28066 ft 396 kts 268°
2026-05-08 18:54 49.98687 6.68389 28061 ft 396 kts 268°
2026-05-08 18:55 49.97725 6.55706 28055 ft 398 kts 258°
2026-05-08 18:56 49.95886 6.47593 28055 ft 401 kts 250°
2026-05-08 18:56 49.93681 6.39628 28054 ft 401 kts 250°
2026-05-08 18:57 49.91464 6.31736 28057 ft 401 kts 249°
2026-05-08 18:57 49.89203 6.23817 28059 ft 401 kts 249°
2026-05-08 18:58 49.86892 6.15983 28061 ft 403 kts 246°
2026-05-08 18:58 49.84047 6.08498 28063 ft 406 kts 240°
2026-05-08 18:59 49.80801 6.01352 28063 ft 407 kts 239°
2026-05-08 18:59 49.77522 5.94201 28063 ft 407 kts 239°
2026-05-08 19:00 49.74569 5.86824 28062 ft 402 kts 246°
2026-05-08 19:00 49.72361 5.78953 28063 ft 400 kts 253°
2026-05-08 19:01 49.70462 5.70881 28063 ft 399 kts 253°
2026-05-08 19:01 49.68588 5.62869 28063 ft 399 kts 253°
2026-05-08 19:02 49.66704 5.54829 28063 ft 399 kts 253°
2026-05-08 19:02 49.64808 5.46763 28063 ft 399 kts 253°
2026-05-08 19:03 49.62913 5.38727 28064 ft 399 kts 253°
2026-05-08 19:03 49.61122 5.30623 28067 ft 399 kts 255°
2026-05-08 19:04 49.60112 5.22310 28066 ft 397 kts 263°
2026-05-08 19:04 49.59392 5.13907 28061 ft 397 kts 263°
2026-05-08 19:05 49.58625 5.05481 28053 ft 397 kts 263°
2026-05-08 19:05 49.57826 4.97051 28044 ft 397 kts 262°
2026-05-08 19:06 49.57017 4.88689 28039 ft 395 kts 262°
2026-05-08 19:06 49.56200 4.80372 28037 ft 394 kts 262°
2026-05-08 19:07 49.55371 4.72034 28036 ft 393 kts 262°
2026-05-08 19:07 49.54956 4.67890 27899 ft 393 kts 262°
2026-05-08 19:07 49.54542 4.63769 27648 ft 392 kts 262°
2026-05-08 19:07 49.54127 4.59656 27396 ft 390 kts 262°
2026-05-08 19:08 49.53708 4.55511 26983 ft 388 kts 262°
2026-05-08 19:08 49.53294 4.51435 26378 ft 388 kts 262°
2026-05-08 19:08 49.52877 4.47346 25652 ft 389 kts 262°
2026-05-08 19:08 49.52459 4.43250 24969 ft 387 kts 262°
2026-05-08 19:09 49.52045 4.39223 24429 ft 383 kts 262°
2026-05-08 19:09 49.51629 4.35193 23862 ft 379 kts 262°
2026-05-08 19:09 49.51216 4.31214 23292 ft 377 kts 261°
2026-05-08 19:09 49.50804 4.27255 22716 ft 375 kts 261°
2026-05-08 19:10 49.50393 4.23317 22145 ft 373 kts 261°
2026-05-08 19:10 49.49982 4.19386 21572 ft 370 kts 261°
2026-05-08 19:10 49.49577 4.15523 21010 ft 368 kts 261°
2026-05-08 19:10 49.49172 4.11681 20452 ft 366 kts 261°
2026-05-08 19:11 49.48757 4.07798 19895 ft 367 kts 261°
2026-05-08 19:11 49.48350 4.03973 19349 ft 367 kts 261°
2026-05-08 19:11 49.47943 4.00085 18794 ft 365 kts 261°
2026-05-08 19:11 49.47541 3.96272 18246 ft 364 kts 261°
2026-05-08 19:12 49.47138 3.92468 17698 ft 362 kts 261°
2026-05-08 19:12 49.46730 3.88658 17144 ft 360 kts 261°
2026-05-08 19:12 49.46349 3.85122 16628 ft 358 kts 261°
2026-05-08 19:12 49.45944 3.81367 16077 ft 356 kts 261°
2026-05-08 19:13 49.45538 3.77617 15525 ft 354 kts 261°
2026-05-08 19:13 49.45132 3.73886 15124 ft 352 kts 261°
2026-05-08 19:13 49.44730 3.70212 14909 ft 350 kts 261°
2026-05-08 19:13 49.44329 3.66547 14552 ft 344 kts 261°
2026-05-08 19:14 49.43937 3.62984 14152 ft 337 kts 261°
2026-05-08 19:14 49.43552 3.59503 13805 ft 329 kts 261°
2026-05-08 19:14 49.43173 3.56078 13573 ft 318 kts 261°
2026-05-08 19:14 49.42809 3.52800 13422 ft 305 kts 261°
2026-05-08 19:15 49.42461 3.49671 13269 ft 293 kts 261°
2026-05-08 19:15 49.42087 3.46638 13122 ft 285 kts 257°
2026-05-08 19:15 49.41507 3.43584 13025 ft 314 kts 251°
2026-05-08 19:15 49.40690 3.40350 13035 ft 326 kts 249°
2026-05-08 19:16 49.39839 3.37151 12935 ft 324 kts 249°
2026-05-08 19:16 49.38988 3.33980 12448 ft 323 kts 248°
2026-05-08 19:16 49.38131 3.30786 11843 ft 324 kts 248°
2026-05-08 19:16 49.37271 3.27599 11315 ft 323 kts 249°
2026-05-08 19:17 49.36415 3.24425 11058 ft 322 kts 249°
2026-05-08 19:17 49.35562 3.21254 11048 ft 324 kts 249°
2026-05-08 19:17 49.34703 3.18062 11047 ft 324 kts 249°
2026-05-08 19:17 49.33850 3.14895 11047 ft 325 kts 249°
2026-05-08 19:18 49.32978 3.11666 11048 ft 325 kts 249°
2026-05-08 19:18 49.32116 3.08480 11049 ft 325 kts 249°
2026-05-08 19:18 49.31248 3.05278 11049 ft 325 kts 249°
2026-05-08 19:18 49.30383 3.02086 11048 ft 324 kts 249°
2026-05-08 19:19 49.29519 2.98910 11047 ft 324 kts 249°
2026-05-08 19:19 49.28654 2.95729 11046 ft 324 kts 250°
2026-05-08 19:19 49.27788 2.92555 11045 ft 325 kts 250°
2026-05-08 19:19 49.26921 2.89367 11043 ft 324 kts 250°
2026-05-08 19:20 49.26052 2.86198 11042 ft 325 kts 250°
2026-05-08 19:20 49.25473 2.84078 11043 ft 325 kts 250°
2026-05-08 19:20 49.24305 2.79805 11043 ft 324 kts 250°
2026-05-08 19:20 49.23438 2.76649 11042 ft 325 kts 250°
2026-05-08 19:21 49.22560 2.73448 11041 ft 322 kts 250°
2026-05-08 19:21 49.21717 2.70391 11038 ft 305 kts 250°
2026-05-08 19:21 49.20907 2.67463 11037 ft 288 kts 250°
2026-05-08 19:21 49.20158 2.64744 11038 ft 271 kts 250°
2026-05-08 19:22 49.19440 2.62142 11039 ft 266 kts 251°
2026-05-08 19:22 49.18734 2.59530 11032 ft 265 kts 254°
2026-05-08 19:22 49.18245 2.56852 10745 ft 260 kts 262°
2026-05-08 19:22 49.18051 2.54117 10285 ft 260 kts 269°
2026-05-08 19:23 49.17979 2.51357 9857 ft 261 kts 271°
2026-05-08 19:23 49.17921 2.48579 9413 ft 262 kts 272°
2026-05-08 19:23 49.17867 2.45804 8971 ft 262 kts 272°
2026-05-08 19:23 49.17810 2.43018 8556 ft 262 kts 272°
2026-05-08 19:24 49.17752 2.40252 8151 ft 262 kts 272°
2026-05-08 19:24 49.17632 2.37483 7728 ft 265 kts 262°
2026-05-08 19:24 49.16922 2.34848 7280 ft 273 kts 244°
2026-05-08 19:24 49.15927 2.32384 7048 ft 271 kts 241°
2026-05-08 19:25 49.14896 2.29987 6959 ft 271 kts 240°
2026-05-08 19:25 49.13838 2.27554 6535 ft 274 kts 240°
2026-05-08 19:25 49.12797 2.25145 6109 ft 275 kts 240°
2026-05-08 19:25 49.11758 2.22720 5697 ft 275 kts 240°
2026-05-08 19:26 49.10715 2.20258 5295 ft 275 kts 240°
2026-05-08 19:26 49.09656 2.17874 5030 ft 271 kts 231°
2026-05-08 19:26 49.08151 2.16207 4834 ft 267 kts 201°
2026-05-08 19:26 49.06380 2.15665 4674 ft 258 kts 184°
2026-05-08 19:27 49.04600 2.15552 4490 ft 250 kts 174°
2026-05-08 19:27 49.02979 2.16315 4179 ft 244 kts 145°
2026-05-08 19:27 49.01669 2.17846 4008 ft 239 kts 136°
2026-05-08 19:27 49.00434 2.19555 4008 ft 240 kts 134°
2026-05-08 19:28 48.99215 2.21298 4004 ft 240 kts 134°
2026-05-08 19:28 48.97993 2.23059 4002 ft 241 kts 134°
2026-05-08 19:28 48.96923 2.24950 3983 ft 237 kts 112°
2026-05-08 19:28 48.96586 2.27327 3964 ft 230 kts 81°
2026-05-08 19:29 48.96993 2.29661 3762 ft 227 kts 65°
2026-05-08 19:29 48.97581 2.31889 3464 ft 226 kts 68°
2026-05-08 19:29 48.97982 2.34186 3171 ft 226 kts 77°
2026-05-08 19:29 48.98215 2.36540 2882 ft 224 kts 80°
2026-05-08 19:30 48.98367 2.38821 2594 ft 216 kts 82°
2026-05-08 19:30 48.98483 2.41093 2323 ft 214 kts 83°
2026-05-08 19:30 48.98589 2.43299 2120 ft 199 kts 83°
2026-05-08 19:30 48.98692 2.45309 1854 ft 185 kts 82°
2026-05-08 19:31 48.98792 2.47208 1571 ft 174 kts 82°
2026-05-08 19:31 48.98885 2.48967 1328 ft 159 kts 82°
2026-05-08 19:31 48.98969 2.50554 1097 ft 143 kts 82°
2026-05-08 19:31 48.99048 2.52041 922 ft 139 kts 83°
2026-05-08 19:32 48.99124 2.53516 750 ft 140 kts 83°
2026-05-08 19:32 48.99207 2.54995 554 ft 141 kts 83°
2026-05-08 19:32 48.99287 2.56499 399 ft 141 kts 83°
2026-05-08 19:32 48.99373 2.57902 330 ft 116 kts 84°
2026-05-08 19:33 48.99424 2.58852 320 ft 53 kts 83°
2026-05-08 19:33 48.99466 2.59261 315 ft 34 kts 65°
2026-05-08 19:33 48.99527 2.59446 314 ft 15 kts 63°
2026-05-08 19:33 48.99574 2.59587 314 ft 14 kts 62°
2026-05-08 19:34 48.99643 2.59687 314 ft 13 kts
2026-05-08 19:34 48.99735 2.59683 315 ft 12 kts 356°
2026-05-08 19:34 48.99815 2.59675 317 ft 10 kts 354°
2026-05-08 19:34 48.99889 2.59665 317 ft 10 kts 354°
2026-05-08 19:35 48.99960 2.59655 318 ft 10 kts 354°
2026-05-08 19:35 49.00027 2.59646 320 ft 7 kts 355°
2026-05-08 19:35 49.00044 2.59644 321 ft 0 kts 355°
2026-05-08 19:35 49.00035 2.59645 321 ft 2 kts 355°
2026-05-08 19:36 49.00019 2.59647 320 ft 0 kts 355°
2026-05-08 19:36 49.00009 2.59648 319 ft 2 kts 355°
2026-05-08 19:36 49.00005 2.59649 319 ft 4 kts 355°
2026-05-08 19:36 49.00092 2.59639 325 ft 10 kts 355°
2026-05-08 19:37 49.00120 2.59636 327 ft 2 kts 355°
2026-05-08 19:37 49.00166 2.59631 330 ft 10 kts 356°
2026-05-08 19:37 49.00238 2.59624 332 ft 9 kts 355°
2026-05-08 19:37 49.00304 2.59617 333 ft 9 kts 355°
2026-05-08 19:38 49.00364 2.59609 334 ft 8 kts 354°
2026-05-08 19:38 49.00425 2.59600 335 ft 9 kts 354°
2026-05-08 19:38 49.00502 2.59590 335 ft 13 kts 354°
2026-05-08 19:38 49.00620 2.59571 333 ft 20 kts 353°
2026-05-08 19:39 49.00778 2.59549 333 ft 23 kts 355°
2026-05-08 19:39 49.00918 2.59537 330 ft 16 kts 356°
2026-05-08 19:39 49.00995 2.59472 331 ft 12 kts 285°
2026-05-08 19:39 49.00995 2.59351 333 ft 10 kts 267°
2026-05-08 19:40 49.00992 2.59244 335 ft 9 kts 266°
2026-05-08 19:40 49.00985 2.59126 337 ft 14 kts 262°
2026-05-08 19:40 49.00957 2.58932 335 ft 22 kts 257°
2026-05-08 19:40 49.00937 2.58686 333 ft 22 kts 265°
2026-05-08 19:41 49.00927 2.58462 337 ft 19 kts 266°
2026-05-08 19:41 49.00914 2.58270 341 ft 16 kts 263°
2026-05-08 19:41 49.00903 2.58100 345 ft 15 kts 264°
2026-05-08 19:41 49.00894 2.57944 348 ft 4 kts 265°
2026-05-08 19:42 49.00894 2.57942 348 ft 0 kts 265°
2026-05-08 19:42 49.00894 2.57941 348 ft 0 kts 265°
2026-05-08 19:42 49.00894 2.57940 348 ft 0 kts 265°
2026-05-08 19:43 49.00894 2.57939 348 ft 0 kts 265°
2026-05-08 19:43 49.00894 2.57938 348 ft 0 kts 265°
2026-05-08 19:44 49.00893 2.57924 348 ft 4 kts 265°
2026-05-08 19:44 49.00891 2.57876 349 ft 8 kts 265°
2026-05-08 19:44 49.00876 2.57768 351 ft 10 kts 234°
2026-05-08 19:44 49.00838 2.57736 350 ft 5 kts 199°
2026-05-08 19:45 49.00816 2.57727 350 ft 2 kts 192°
2026-05-08 19:45 49.00798 2.57694 350 ft 3 kts 274°
2026-05-08 19:45 49.00796 2.57643 350 ft 8 kts 263°
2026-05-08 19:45 49.00785 2.57516 353 ft 12 kts 262°
2026-05-08 19:46 49.00776 2.57390 355 ft 11 kts 264°
2026-05-08 19:46 49.00774 2.57342 356 ft 3 kts 264°
2026-05-08 19:46 49.00740 2.57252 360 ft 7 kts 185°
2026-05-08 19:47 49.00706 2.57282 358 ft 6 kts 135°
2026-05-08 19:47 49.00682 2.57319 357 ft 4 kts 134°
2026-05-08 19:47 49.00682 2.57320 357 ft 0 kts 134°